Simultaneous Nadir Overpasses (SNOs) Predictions

Prediction of SNOs between GOES-15 and LANDSAT-8 Satellite Orbit:

Table of predicted SNOs for the next 14.0 days since TLE Epoch: 5/4/2024
Index Date Time (GOES-15) GOES-15 Lat,Lon LANDSAT-8 Lat,Lon Distance(km) Time Diff (sec)
1 05/05/2024 06:01:57 -0.16, 61.49 -0.30, 62.03 61.91 80
2 05/07/2024 05:49:44 -0.16, 61.52 -0.88, 65.00 394.59 80
3 05/07/2024 18:13:48 0.16, 61.50 -0.23, 59.80 193.57 80
4 05/09/2024 17:58:56 0.16, 61.54 0.42, 62.75 138.45 80
5 05/10/2024 06:22:51 -0.16, 61.57 0.69, 57.60 451.98 80
6 05/11/2024 17:46:44 0.17, 61.58 1.08, 65.70 470.00 80
7 05/12/2024 06:10:39 -0.16, 61.61 0.03, 60.55 120.53 80
8 05/14/2024 05:55:46 -0.17, 61.66 -0.58, 63.51 210.95 80
9 05/14/2024 18:19:50 0.17, 61.64 -0.52, 58.32 377.41 80
10 05/16/2024 18:07:37 0.17, 61.68 0.11, 61.27 45.82 80
